[[{"header":{"parameterUnit":"m.s-1","parameterCategory":1,"la1":30.2991,"la2":30.254,"lo1":-89.0895,"lo2":-89.0444,"dy":0.0017,"dx":0.0017,"nx":28,"ny":28,"refTime":"2023-07-25T09:00:00:Z","depth":0,"parameterNumber":2,"parameterNumberName":"U-component_of_WINDS"},"data":[0,0,0,0,0,0,0,0,0,0,0,0,0,0,0,0,0,0,0,0,0,0,0,0,0,0,0,0,0,0,0,0,0,0,0,0,0,0,0,0,0,0,0,0,0,0,0,0,0,0,0,0,0,0,0,0,0,0,-0.7261,-0.726,0,-0.7222,-0.7221,-0.7221,-0.7155,-0.7154,-0.7153,-0.7152,-0.7112,-0.7113,-0.7113,0,0,0,0,0,0,0,0,0,0,0,0,0,-0.7278,-0.7278,-0.7261,-0.726,-0.726,-0.7222,-0.7221,-0.7221,-0.7156,-0.7154,-0.7153,-0.7151,-0.7112,-0.7113,-0.7113,0,0,0,0,0,0,0,0,0,0,0,0,0,-0.7258,-0.7278,-0.7261,-0.7223,-0.7219,-0.7222,-0.7221,-0.722,-0.7156,-0.7154,-0.7152,-0.7151,-0.7112,-0.7113,-0.7113,-0.715,0,0,-0.7113,-0.7113,0,0,0,0,0,0,0,0,-0.7259,-0.7257,-0.7229,-0.7225,-0.7221,-0.7192,-0.7213,-0.7197,-0.7156,-0.718,-0.7152,-0.715,-0.714,-0.7138,-0.7135,-0.7148,-0.7146,-0.7113,-0.7113,-0.7113,-0.7113,0,0,0,0,0,0,0,-0.7261,-0.7259,-0.7245,-0.7229,-0.7224,-0.7207,-0.7202,-0.7209,-0.7171,-0.7178,-0.7173,-0.7169,-0.7138,-0.7135,-0.7133,-0.7145,-0.7113,-0.7113,-0.7113,-0.7113,-0.7184,-0.7186,0,0,0,0,0,0,-0.7268,-0.726,-0.7246,-0.7244,-0.7236,-0.7208,-0.7203,-0.7203,-0.7171,-0.7164,-0.7171,-0.7166,-0.7135,-0.7133,-0.7132,-0.7171,-0.7113,-0.7113,-0.7113,-0.7182,-0.7184,-0.7186,0,0,0,0,0,0,-0.7268,-0.7267,-0.7248,-0.7251,-0.7247,-0.721,-0.721,-0.7203,-0.72,-0.7165,-0.7158,-0.7175,-0.7134,-0.7131,-0.7145,-0.7169,-0.7113,-0.7113,-0.718,-0.7183,-0.7185,-0.7251,0,0,0,0,0,0,-0.7269,-0.7268,-0.7282,-0.7252,-0.7247,-0.7263,-0.7212,-0.7204,-0.72,-0.7194,-0.7167,-0.7161,-0.7132,-0.7145,-0.7145,-0.7168,-0.7113,-0.7178,-0.7181,-0.7184,-0.7246,-0.7255,-0.7263,0,0,0,0,0,-0.727,-0.7303,-0.7283,-0.7282,-0.7264,-0.7264,-0.7262,-0.7228,-0.7202,-0.7216,-0.7193,-0.7162,-0.7166,-0.7147,-0.7146,-0.717,-0.7176,-0.718,-0.7184,-0.7243,-0.7254,-0.7263,0,0,0,0,0,0,-0.7338,-0.7298,-0.7276,-0.73,-0.7286,-0.7253,-0.7269,-0.7241,-0.7234,-0.7229,-0.7187,-0.7182,-0.72,-0.7186,-0.7166,-0.7202,-0.7166,-0.717,-0.7211,-0.7221,-0.7229,-0.7232,-0.7114,0,0,0,0,0,-0.7355,-0.7359,-0.7324,-0.7348,-0.7342,-0.7307,-0.7306,-0.7281,-0.7265,-0.7259,-0.7237,-0.7223,-0.722,-0.722,-0.7216,-0.7244,-0.7236,-0.7259,-0.7268,-0.7275,-0.7279,-0.729,-0.7299,-0.72,-0.7199,-0.7199,0,0,-0.7392,-0.7371,-0.7376,-0.7361,-0.7348,-0.7351,-0.7303,-0.731,-0.7311,-0.726,-0.7271,-0.7254,-0.7235,-0.7255,-0.7263,-0.7244,-0.7304,-0.728,-0.7286,-0.7286,-0.7295,-0.7304,-0.7313,-0.7202,-0.7202,-0.7201,0,0,-0.746,-0.7445,-0.7463,-0.7449,-0.7429,-0.7405,-0.7409,-0.738,-0.7367,-0.7377,-0.7337,-0.7339,-0.7337,-0.7324,-0.7317,-0.7378,-0.7348,-0.7378,-0.7422,-0.7433,-0.7441,-0.7448,-0.7468,-0.7476,-0.7382,-0.7382,-0.7382,0,-0.7508,-0.7513,-0.7476,-0.7484,-0.7478,-0.743,-0.7447,-0.7436,-0.7415,-0.7412,-0.7391,-0.7385,-0.7369,-0.7384,-0.7399,-0.7396,-0.7398,-0.7381,-0.7443,-0.7449,-0.7455,-0.7473,-0.7481,-0.7386,-0.7385,-0.7385,-0.7385,0,-0.7572,-0.7575,-0.7592,-0.7572,-0.7568,-0.7581,-0.7545,-0.7545,-0.752,-0.7498,-0.7507,-0.7486,-0.7476,-0.7478,-0.7454,-0.7489,-0.7478,-0.7451,-0.7413,-0.7469,-0.7485,-0.7492,-0.7391,-0.739,-0.7389,-0.7388,0,0,-0.7683,-0.7641,-0.7647,-0.7636,-0.7609,-0.7611,-0.762,-0.761,-0.761,-0.7597,-0.7603,-0.7601,-0.7574,-0.7567,-0.7541,-0.7551,-0.7598,-0.7522,-0.7521,-0.7536,-0.7633,-0.7653,-0.7662,-0.7578,-0.7579,-0.758,-0.7634,0,-0.7745,-0.7759,-0.7724,-0.7747,-0.7748,-0.7702,-0.771,-0.7694,-0.7673,-0.767,-0.7647,-0.7646,-0.7612,-0.7607,-0.7615,-0.7591,-0.7617,-0.7586,-0.7582,-0.7582,-0.7587,-0.7671,-0.7692,-0.7744,-0.764,-0.7641,-0.7642,0,-0.7819,-0.7808,-0.783,-0.7799,-0.7799,-0.7807,-0.7793,-0.7792,-0.7771,-0.7755,-0.7745,-0.7714,-0.772,-0.7685,-0.7692,-0.7672,-0.7668,-0.7655,-0.7656,-0.7654,-0.7615,-0.7669,-0.776,-0.7767,-0.7652,-0.7652,-0.7651,0,-0.7896,-0.7887,-0.7898,-0.7891,-0.7855,-0.7861,-0.7847,-0.7825,-0.782,-0.7808,-0.7804,-0.7793,-0.7787,-0.7778,-0.7745,-0.7722,-0.7755,-0.7717,-0.774,-0.7741,-0.7749,-0.7749,-0.7839,-0.7749,-0.7749,-0.7748,-0.7748,0,-0.7967,-0.7983,-0.7932,-0.7939,-0.7953,-0.7913,-0.7929,-0.791,-0.789,-0.7892,-0.7851,-0.7854,-0.7809,-0.7806,-0.778,-0.7788,-0.7786,-0.7773,-0.7765,-0.7776,-0.7777,-0.7772,-0.7767,-0.775,-0.775,-0.775,-0.7749,0,-0.8056,-0.8022,-0.8031,-0.7996,-0.7988,-0.8,-0.797,-0.7974,-0.795,-0.7952,-0.7951,-0.7913,-0.7907,-0.7872,-0.7859,-0.7841,-0.7858,-0.7845,-0.7865,-0.786,-0.7885,-0.7882,-0.7974,-0.7983,-0.7889,-0.7889,-0.789,0,-0.8103,-0.8113,-0.8079,-0.8077,-0.8064,-0.8061,-0.8055,-0.8016,-0.8011,-0.7987,-0.7994,-0.7985,-0.7975,-0.7968,-0.7939,-0.7928,-0.7912,-0.7945,-0.7911,-0.792,-0.7911,-0.791,-0.791,-0.7953,-0.7954,-0.7955,-0.7956,0,-0.8191,-0.8173,-0.8166,-0.8153,-0.8147,-0.8135,-0.812,-0.8121,-0.8077,-0.8074,-0.8067,-0.8059,-0.8044,-0.8035,-0.8019,-0.8003,-0.7971,-0.7967,-0.7971,-0.7981,-0.7992,-0.7985,-0.7884,-0.7965,-0.7964,-0.7963,-0.7963,-0.7962,-0.8259,-0.8265,-0.8241,-0.8234,-0.8218,-0.8205,-0.8206,-0.8182,-0.8175,-0.816,-0.8137,-0.8133,-0.8109,-0.8084,-0.807,-0.8066,-0.8048,-0.8055,-0.8057,-0.8059,-0.8063,-0.7994,-0.8063,-0.8062,-0.8062,-0.8062,-0.8062,0,-0.8342,-0.8324,-0.8318,-0.8298,-0.8292,-0.8263,-0.8245,-0.8242,-0.8238,-0.8219,-0.821,-0.8201,-0.8191,-0.8161,-0.8147,-0.8149,-0.8134,-0.8147,-0.8146,-0.8142,-0.8081,-0.8077,-0.8159,-0.8159,-0.8159,-0.8159,-0.8159,-0.8159,-0.8385,-0.8393,-0.8372,-0.8371,-0.8353,-0.8348,-0.834,-0.8326,-0.8311,-0.8302,-0.8294,-0.8274,-0.8249,-0.8234,-0.8223,-0.8214,-0.821,-0.8227,-0.8213,-0.8156,-0.8147,-0.8138,-0.8135,-0.8227,-0.8227,-0.8275,-0.8275,-0.8276]},{"header":{"parameterUnit":"m.s-1","parameterCategory":1,"la1":30.2991,"la2":30.254,"lo1":-89.0895,"lo2":-89.0444,"dy":0.0017,"dx":0.0017,"nx":28,"ny":28,"refTime":"2023-07-25T09:00:00:Z","depth":0,"parameterNumber":3,"parameterNumberName":"V-component_of_WINDS"},"data":[0,0,0,0,0,0,0,0,0,0,0,0,0,0,0,0,0,0,0,0,0,0,0,0,0,0,0,0,0,0,0,0,0,0,0,0,0,0,0,0,0,0,0,0,0,0,0,0,0,0,0,0,0,0,0,0,0,0,-1.9533,-1.9534,0,-1.9635,-1.9636,-1.9637,-1.9658,-1.9657,-1.9657,-1.9656,-1.9759,-1.9762,-1.9765,0,0,0,0,0,0,0,0,0,0,0,0,0,-1.9354,-1.9357,-1.9533,-1.9534,-1.9535,-1.9635,-1.9636,-1.9638,-1.9658,-1.9657,-1.9657,-1.9656,-1.9757,-1.9762,-1.9766,0,0,0,0,0,0,0,0,0,0,0,0,0,-1.9441,-1.9358,-1.9532,-1.9558,-1.9561,-1.9635,-1.9636,-1.9638,-1.9659,-1.9657,-1.9656,-1.9655,-1.9756,-1.9761,-1.9766,-1.9821,0,0,-1.9782,-1.9784,0,0,0,0,0,0,0,0,-1.9436,-1.9448,-1.9553,-1.9556,-1.956,-1.9633,-1.9611,-1.9699,-1.9659,-1.9621,-1.9656,-1.9655,-1.9718,-1.9726,-1.9747,-1.9826,-1.9831,-1.9783,-1.9786,-1.9788,-1.9789,0,0,0,0,0,0,0,-1.943,-1.9444,-1.9573,-1.9554,-1.9559,-1.9563,-1.9575,-1.9628,-1.9675,-1.9625,-1.9626,-1.9638,-1.9719,-1.9742,-1.975,-1.9832,-1.9782,-1.9787,-1.979,-1.9792,-1.9961,-1.9962,0,0,0,0,0,0,-1.942,-1.9438,-1.957,-1.9576,-1.9494,-1.9568,-1.958,-1.961,-1.9674,-1.9683,-1.9639,-1.9639,-1.9734,-1.9744,-1.9754,-1.9822,-1.9788,-1.9793,-1.9796,-1.996,-1.9961,-1.9963,0,0,0,0,0,0,-1.9416,-1.9431,-1.9566,-1.9508,-1.9525,-1.9572,-1.9606,-1.9613,-1.9636,-1.9685,-1.9693,-1.9654,-1.9734,-1.9746,-1.9805,-1.9826,-1.9795,-1.98,-1.9958,-1.996,-1.9962,-1.996,0,0,0,0,0,0,-1.9411,-1.943,-1.9452,-1.9508,-1.9528,-1.9615,-1.9607,-1.9616,-1.9645,-1.9646,-1.9702,-1.971,-1.9734,-1.9797,-1.981,-1.9833,-1.9804,-1.9956,-1.9959,-1.9961,-1.9958,-1.9962,-1.9965,0,0,0,0,0,-1.9404,-1.9447,-1.9453,-1.9468,-1.9557,-1.9617,-1.9628,-1.9655,-1.9647,-1.9669,-1.9701,-1.9708,-1.9822,-1.9802,-1.9817,-1.9842,-1.9955,-1.9958,-1.9961,-1.9957,-1.9961,-1.9965,0,0,0,0,0,0,-1.9391,-1.9454,-1.9462,-1.9524,-1.9565,-1.962,-1.9649,-1.9659,-1.9702,-1.9701,-1.9733,-1.9745,-1.9801,-1.9828,-1.9805,-1.9899,-1.9888,-1.9894,-1.988,-1.9884,-1.9887,-1.9879,-1.9808,0,0,0,0,0,-1.9395,-1.9439,-1.9492,-1.9542,-1.9562,-1.9602,-1.9629,-1.9646,-1.969,-1.9707,-1.9743,-1.9784,-1.9829,-1.9858,-1.9902,-1.9962,-1.9975,-1.9987,-1.999,-1.9992,-1.9997,-2.0031,-2.0037,-1.9973,-1.9973,-1.9973,0,0,-1.9404,-1.9444,-1.947,-1.954,-1.9574,-1.9618,-1.9616,-1.9663,-1.9696,-1.9714,-1.9771,-1.9799,-1.9847,-1.9906,-1.9934,-1.993,-2.0018,-1.9996,-1.9998,-2.0002,-2.0035,-2.0041,-2.0046,-1.9975,-1.9975,-1.9974,0,0,-1.9443,-1.9479,-1.9524,-1.9558,-1.9609,-1.9635,-1.9646,-1.97,-1.972,-1.9778,-1.9792,-1.9831,-1.9909,-1.9942,-1.997,-2.0022,-2.003,-2.0035,-2.0052,-2.0085,-2.009,-2.0094,-2.0113,-2.0119,-2.004,-2.004,-2.004,0,-1.9448,-1.9516,-1.9545,-1.9592,-1.9622,-1.9641,-1.9687,-1.9718,-1.9781,-1.9801,-1.9796,-1.9893,-1.9927,-1.9994,-2.0007,-2.0029,-2.0042,-2.0029,-2.0087,-2.0092,-2.0096,-2.0114,-2.0121,-2.0041,-2.0041,-2.004,-2.004,0,-1.9519,-1.9566,-1.9596,-1.9657,-1.9691,-1.9737,-1.9772,-1.9803,-1.9818,-1.9844,-1.9903,-1.9944,-1.9997,-2.0015,-2.0029,-2.0085,-2.008,-2.008,-2.007,-2.0102,-2.012,-2.0127,-2.0041,-2.0041,-2.0041,-2.0041,0,0,-1.9552,-1.963,-1.964,-1.9668,-1.9726,-1.9763,-1.981,-1.9862,-1.9887,-1.993,-1.997,-2.0035,-2.0035,-2.0066,-2.0085,-2.0114,-2.0152,-2.011,-2.0112,-2.0116,-2.0216,-2.0215,-2.0223,-2.0158,-2.016,-2.0161,-2.0212,0,-1.9599,-1.9683,-1.9711,-1.9781,-1.9824,-1.9843,-1.9884,-1.9924,-1.995,-1.999,-2.0019,-2.0065,-2.0062,-2.0081,-2.011,-2.0141,-2.0173,-2.0138,-2.0195,-2.0197,-2.0182,-2.0232,-2.0231,-2.0277,-2.0219,-2.022,-2.0221,0,-1.9664,-1.9708,-1.9783,-1.9836,-1.9855,-1.9891,-1.9942,-1.998,-2.0026,-2.0043,-2.0078,-2.0094,-2.0143,-2.013,-2.0198,-2.0174,-2.0199,-2.0217,-2.022,-2.0226,-2.021,-2.0239,-2.0292,-2.0299,-2.0232,-2.0231,-2.023,0,-1.968,-1.9759,-1.9814,-1.9837,-1.99,-1.9925,-1.9953,-1.9997,-2.0027,-2.0071,-2.0091,-2.0139,-2.0166,-2.0203,-2.0232,-2.022,-2.0297,-2.0287,-2.0312,-2.0312,-2.0328,-2.0326,-2.0385,-2.0344,-2.0344,-2.0344,-2.0343,0,-1.9729,-1.9773,-1.9822,-1.9856,-1.9906,-1.9938,-1.9987,-2.0015,-2.0055,-2.0094,-2.0113,-2.0149,-2.0186,-2.0226,-2.0249,-2.0302,-2.0314,-2.0329,-2.0334,-2.0327,-2.0325,-2.0343,-2.0341,-2.0346,-2.0345,-2.0345,-2.0344,0,-1.9755,-1.979,-1.9851,-1.9906,-1.9921,-1.9956,-2.0003,-2.0036,-2.0063,-2.0113,-2.0126,-2.0169,-2.0218,-2.0251,-2.0313,-2.0329,-2.0386,-2.0391,-2.0371,-2.0373,-2.0397,-2.0394,-2.047,-2.0482,-2.0432,-2.0433,-2.0433,0,-1.9784,-1.9819,-1.9878,-1.9906,-1.9934,-1.9979,-2.0009,-2.0042,-2.0073,-2.0128,-2.0154,-2.0205,-2.0247,-2.0325,-2.0361,-2.0409,-2.0415,-2.0438,-2.0422,-2.0414,-2.0415,-2.0413,-2.0416,-2.044,-2.0441,-2.0441,-2.0441,0,-1.9831,-1.9846,-1.989,-1.9941,-1.9977,-2.0018,-2.0059,-2.008,-2.012,-2.0154,-2.0205,-2.0237,-2.0302,-2.0352,-2.0403,-2.0431,-2.0443,-2.0446,-2.0455,-2.0448,-2.0434,-2.0442,-2.0377,-2.0444,-2.0444,-2.0444,-2.0444,-2.0444,-1.986,-1.9892,-1.9938,-1.9987,-2.0021,-2.0059,-2.0093,-2.0125,-2.0168,-2.0224,-2.024,-2.0293,-2.0338,-2.0408,-2.0437,-2.0478,-2.0476,-2.0488,-2.0491,-2.0494,-2.0494,-2.0428,-2.0488,-2.0488,-2.0488,-2.0488,-2.0488,0,-1.9907,-1.9939,-1.9983,-2.004,-2.0078,-2.0087,-2.0132,-2.0163,-2.021,-2.0251,-2.0293,-2.0351,-2.04,-2.044,-2.049,-2.0516,-2.0522,-2.0528,-2.0526,-2.0532,-2.0493,-2.0481,-2.0521,-2.0521,-2.0521,-2.0521,-2.0521,-2.0521,-1.9937,-1.9991,-2.0012,-2.0084,-2.0115,-2.0168,-2.0193,-2.0228,-2.0261,-2.0326,-2.0367,-2.0393,-2.0434,-2.0487,-2.0532,-2.0542,-2.056,-2.0564,-2.0576,-2.0539,-2.0535,-2.0531,-2.052,-2.0568,-2.0568,-2.0611,-2.0612,-2.0612]}]]